When you browse on this site, cookies collect data to enhance your experience and personalize the content and advertising you see.
Visit our Privacy Policy to learn more. By continuing to use the site, you agree to this use of cookies and data.
  • în România
  • Lista ţărilor
  • Pe 7 zile
  • Temperatura apei
  • Hartă satelitară
  • Meteo pe hartă
  • Widget-uri
  • user-avatar
    Intrare

    Meteo pe oră la Philadelphia

    Astăzi, 15 Decembrie, Sâmbătă

    Timp Temperatura Precipitaţii Vânt Presiune Umiditate
    00:00 +10°C° 0.6 mm 1 m/s 767 mmHg 98%
    01:00 +10°C° 0 mm 1 m/s 766 mmHg 97%
    02:00 +10°C° 0.8 mm 1 m/s 766 mmHg 98%
    03:00 +9°C° 0.8 mm 2 m/s 765 mmHg 98%
    04:00 +9°C° 0.8 mm 2 m/s 765 mmHg 98%
    05:00 +9°C° 0.4 mm 2 m/s 765 mmHg 98%
    06:00 +9°C° 0.4 mm 2 m/s 764 mmHg 98%
    07:00 +9°C° 0 mm 2 m/s 764 mmHg 98%
    08:00 +9°C° 0.9 mm 2 m/s 763 mmHg 97%
    09:00 +10°C° 0.9 mm 3 m/s 763 mmHg 97%
    10:00 +10°C° 0.9 mm 3 m/s 763 mmHg 96%
    11:00 +10°C° 0.6 mm 3 m/s 763 mmHg 95%
    12:00 +10°C° 0.6 mm 3 m/s 763 mmHg 94%
    13:00 +11°C° 0.6 mm 3 m/s 762 mmHg 94%
    14:00 +10°C° 0.4 mm 3 m/s 762 mmHg 93%
    15:00 +10°C° 0.4 mm 4 m/s 762 mmHg 92%
    16:00 +10°C° 0.4 mm 4 m/s 762 mmHg 91%
    17:00 +10°C° 1.2 mm 4 m/s 762 mmHg 90%
    18:00 +10°C° 1.2 mm 4 m/s 762 mmHg 89%
    19:00 +8°C° 1.2 mm 5 m/s 762 mmHg 88%
    20:00 +8°C° 0.4 mm 5 m/s 762 mmHg 85%
    21:00 +8°C° 0.4 mm 5 m/s 762 mmHg 83%
    22:00 +8°C° 0.4 mm 5 m/s 761 mmHg 81%
    23:00 +8°C° 1.3 mm 6 m/s 761 mmHg 80%

    Mâine, 16 Decembrie, Duminică

    Timp Temperatura Precipitaţii Vânt Presiune Umiditate
    00:00 +7°C° 1.3 mm 6 m/s 761 mmHg 80%
    01:00 +7°C° 1.3 mm 6 m/s 761 mmHg 79%
    02:00 +5°C° 3 mm 6 m/s 761 mmHg 81%
    03:00 +5°C° 3 mm 6 m/s 760 mmHg 83%
    04:00 +5°C° 3 mm 5 m/s 760 mmHg 85%
    05:00 +4°C° 1.2 mm 6 m/s 760 mmHg 85%
    06:00 +4°C° 1.2 mm 7 m/s 760 mmHg 84%
    07:00 +4°C° 1.2 mm 8 m/s 760 mmHg 84%
    08:00 +4°C° 0.4 mm 7 m/s 759 mmHg 83%
    09:00 +4°C° 0.4 mm 7 m/s 759 mmHg 83%
    10:00 +4°C° 0.4 mm 7 m/s 759 mmHg 82%
    11:00 +4°C° 0.1 mm 7 m/s 758 mmHg 82%
    12:00 +4°C° 0.1 mm 6 m/s 757 mmHg 82%
    13:00 +4°C° 0.1 mm 6 m/s 756 mmHg 82%
    14:00 +5°C° 0.4 mm 5 m/s 756 mmHg 83%
    15:00 +5°C° 0.4 mm 5 m/s 756 mmHg 84%
    16:00 +5°C° 0.4 mm 5 m/s 756 mmHg 85%
    17:00 +5°C° 0.4 mm 5 m/s 756 mmHg 85%
    18:00 +3°C° 0.4 mm 5 m/s 756 mmHg 85%
    19:00 +3°C° 0.4 mm 5 m/s 756 mmHg 85%
    20:00 +4°C° 0 mm 4 m/s 756 mmHg 84%
    21:00 +4°C° 0 mm 4 m/s 756 mmHg 84%
    22:00 +3°C° 0 mm 4 m/s 756 mmHg 84%
    23:00 +3°C° 0 mm 4 m/s 756 mmHg 84%

    Poimâine, 17 Decembrie, Luni

    Timp Temperatura Precipitaţii Vânt Presiune Umiditate
    00:00 +3°C° 0 mm 3 m/s 756 mmHg 84%
    01:00 +3°C° 0 mm 3 m/s 756 mmHg 85%
    02:00 +2°C° 0 mm 3 m/s 756 mmHg 85%
    03:00 +2°C° 0 mm 3 m/s 756 mmHg 86%
    04:00 +2°C° 0 mm 3 m/s 756 mmHg 86%
    05:00 +2°C° 0 mm 3 m/s 756 mmHg 86%
    06:00 +2°C° 0 mm 3 m/s 756 mmHg 86%
    07:00 +2°C° 0 mm 3 m/s 756 mmHg 86%
    08:00 +3°C° 0 mm 4 m/s 756 mmHg 80%
    09:00 +4°C° 0 mm 4 m/s 756 mmHg 73%
    10:00 +5°C° 0 mm 5 m/s 756 mmHg 66%
    11:00 +6°C° 0 mm 5 m/s 755 mmHg 64%
    12:00 +5°C° 0 mm 6 m/s 754 mmHg 61%
    13:00 +7°C° 0 mm 6 m/s 754 mmHg 59%
    14:00 +5°C° 0 mm 6 m/s 754 mmHg 59%
    15:00 +4°C° 0 mm 7 m/s 755 mmHg 58%
    16:00 +3°C° 0 mm 7 m/s 755 mmHg 58%
    17:00 +3°C° 0 mm 7 m/s 756 mmHg 57%
    18:00 +2°C° 0 mm 6 m/s 756 mmHg 57%
    19:00 +1°C° 0 mm 6 m/s 757 mmHg 56%
    20:00 +1°C° 0 mm 6 m/s 757 mmHg 56%
    21:00 -1°C° 0 mm 6 m/s 758 mmHg 57%
    22:00 -1°C° 0 mm 6 m/s 758 mmHg 58%
    23:00 -2°C° 0 mm 6 m/s 758 mmHg 57%

    18 Decembrie, Marţi

    Timp Temperatura Precipitaţii Vânt Presiune Umiditate
    00:00 -1°C° 0 mm 5 m/s 759 mmHg 57%
    01:00 -2°C° 0 mm 5 m/s 759 mmHg 57%
    02:00 -2°C° 0 mm 5 m/s 760 mmHg 57%
    03:00 -2°C° 0 mm 5 m/s 760 mmHg 57%
    04:00 -4°C° 0 mm 5 m/s 760 mmHg 57%
    05:00 -4°C° 0 mm 5 m/s 761 mmHg 57%
    06:00 -3°C° 0 mm 4 m/s 762 mmHg 57%
    07:00 -3°C° 0 mm 4 m/s 762 mmHg 57%
    08:00 -2°C° 0 mm 5 m/s 763 mmHg 54%
    09:00 -1°C° 0 mm 5 m/s 763 mmHg 51%
    10:00 -2°C° 0 mm 6 m/s 764 mmHg 49%
    11:00 0°C° 0 mm 5 m/s 763 mmHg 46%
    12:00 +1°C° 0 mm 5 m/s 763 mmHg 44%
    13:00 +2°C° 0 mm 5 m/s 763 mmHg 41%
    14:00 +2°C° 0 mm 5 m/s 763 mmHg 43%
    15:00 +1°C° 0 mm 4 m/s 763 mmHg 45%
    16:00 +1°C° 0 mm 4 m/s 764 mmHg 46%
    17:00 +1°C° 0 mm 3 m/s 764 mmHg 50%
    18:00 +1°C° 0 mm 3 m/s 765 mmHg 53%
    19:00 +1°C° 0 mm 2 m/s 765 mmHg 57%
    20:00 -1°C° 0 mm 2 m/s 765 mmHg 58%
    21:00 -1°C° 0 mm 2 m/s 765 mmHg 60%
    22:00 -1°C° 0 mm 2 m/s 766 mmHg 61%
    23:00 -1°C° 0 mm 2 m/s 765 mmHg 62%

    19 Decembrie, Miercuri

    Timp Temperatura Precipitaţii Vânt Presiune Umiditate
    00:00 -1°C° 0 mm 2 m/s 765 mmHg 63%
    01:00 -2°C° 0 mm 2 m/s 765 mmHg 64%
    02:00 -2°C° 0 mm 2 m/s 765 mmHg 64%
    03:00 0°C° 0 mm 1 m/s 765 mmHg 65%
    04:00 0°C° 0 mm 1 m/s 765 mmHg 65%
    05:00 0°C° 0 mm 1 m/s 765 mmHg 65%
    06:00 0°C° 0 mm 1 m/s 765 mmHg 66%
    07:00 0°C° 0 mm 1 m/s 765 mmHg 66%
    08:00 +1°C° 0 mm 2 m/s 765 mmHg 61%
    09:00 +2°C° 0 mm 2 m/s 765 mmHg 57%
    10:00 +2°C° 0 mm 3 m/s 765 mmHg 53%
    11:00 +3°C° 0 mm 3 m/s 765 mmHg 52%
    12:00 +4°C° 0 mm 3 m/s 764 mmHg 51%
    13:00 +5°C° 0 mm 3 m/s 763 mmHg 50%
    14:00 +5°C° 0 mm 3 m/s 763 mmHg 55%
    15:00 +6°C° 0 mm 2 m/s 763 mmHg 60%
    16:00 +5°C° 0 mm 2 m/s 762 mmHg 65%
    17:00 +4°C° 0 mm 2 m/s 763 mmHg 70%
    18:00 +4°C° 0 mm 2 m/s 763 mmHg 75%
    19:00 +3°C° 0 mm 2 m/s 763 mmHg 80%
    20:00 +2°C° 0 mm 2 m/s 763 mmHg 81%
    21:00 +2°C° 0 mm 2 m/s 763 mmHg 82%
    22:00 +2°C° 0 mm 2 m/s 762 mmHg 83%
    23:00 +2°C° 0 mm 2 m/s 762 mmHg 84%

    20 Decembrie, Joi

    Timp Temperatura Precipitaţii Vânt Presiune Umiditate
    00:00 +2°C° 0 mm 2 m/s 762 mmHg 85%
    01:00 +1°C° 0 mm 2 m/s 762 mmHg 86%
    02:00 +2°C° 0 mm 1 m/s 762 mmHg 87%
    03:00 +2°C° 0 mm 1 m/s 762 mmHg 88%
    04:00 +2°C° 0 mm 1 m/s 762 mmHg 89%
    05:00 +2°C° 0 mm 1 m/s 762 mmHg 90%
    06:00 +2°C° 0 mm 1 m/s 762 mmHg 91%
    07:00 +2°C° 0 mm 1 m/s 762 mmHg 91%
    08:00 +4°C° 0 mm 1 m/s 762 mmHg 88%
    09:00 +4°C° 0 mm 2 m/s 762 mmHg 84%
    10:00 +5°C° 0 mm 2 m/s 762 mmHg 80%
    11:00 +6°C° 0 mm 2 m/s 761 mmHg 78%
    12:00 +7°C° 0 mm 2 m/s 761 mmHg 76%
    13:00 +9°C° 0 mm 2 m/s 760 mmHg 75%
    14:00 +8°C° 0.1 mm 2 m/s 760 mmHg 79%
    15:00 +8°C° 0.1 mm 2 m/s 759 mmHg 84%
    16:00 +7°C° 0.1 mm 2 m/s 759 mmHg 88%
    17:00 +8°C° 0.2 mm 2 m/s 759 mmHg 91%
    18:00 +9°C° 0.2 mm 3 m/s 758 mmHg 93%
    19:00 +9°C° 0.2 mm 3 m/s 758 mmHg 96%
    20:00 +10°C° 0.6 mm 3 m/s 757 mmHg 97%
    21:00 +11°C° 0.6 mm 3 m/s 756 mmHg 97%
    22:00 +12°C° 0.6 mm 4 m/s 755 mmHg 97%
    23:00 +12°C° 2.3 mm 4 m/s 754 mmHg 96%
    Arată mai mult